Regional Weather Roundup
Issued by NWS

Home | Current Version | Previous Version | Text Only | Print | Product List | Glossary On
Versions: 1 2 3 4 5 6 7 8 9 10 11 12 13 14 15 16 17 18 19 20 21 22 23 24 25 26 27
000
ASUS45 KPSR 292010
RWRAZ

ARIZONA HOURLY REGIONAL WEATHER ROUNDUP
NATIONAL WEATHER SERVICE PHOENIX AZ
100 PM MST THU SEP 29 2016

NOTE: FAIR INDICATES FEW OR NO CLOUDS BELOW 12,000 FEET WITH NO
SIGNIFICANT WEATHER AND/OR OBSTRUCTIONS TO VISIBILITY.

AZZ001>003-036-292100-
NORTHWEST ARIZONA

CITY           SKY/WX    TMP DP  RH WIND       PRES   REMARKS
BULLHEAD CITY  SUNNY     93  52  24 NW3       30.02F
KINGMAN        PTSUNNY   83  49  30 S12       30.18F
$$

AZZ004>008-015-016-018-292100-
NORTH CENTRAL ARIZONA

CITY           SKY/WX    TMP DP  RH WIND       PRES   REMARKS
GRAND CANYON   CLOUDY    63  51  65 SE10      30.40F
PRESCOTT       PTSUNNY   69  54  58 SE10G21   30.31F
FLAGSTAFF      CLOUDY    56  53  90 S7        30.45F
PAYSON         CLOUDY    63  57  82 N9        30.34F
PAGE           LGT RAIN  71  59  65 N5        30.29F
$$

AZZ009>014-017-292100-
NORTHEAST ARIZONA

CITY           SKY/WX    TMP DP  RH WIND       PRES   REMARKS
WINSLOW        TSTM      60  57  89 SE3       30.38R FOG
SAINT JOHNS    CLOUDY    61  55  81 NE5       30.39F
WINDOW ROCK    LGT RAIN  56  52  86 N5        30.48F
SHOW LOW       LGT RAIN  50  48  93 N3        30.46F
$$

AZZ023-292100-
GREATER PHOENIX AREA

CITY           SKY/WX    TMP DP  RH WIND       PRES   REMARKS
PHOENIX        PTSUNNY   88  60  38 VRB5      30.06F
BUCKEYE        PTSUNNY   90  59  35 E17G24    30.07F
GLENDALE       PTSUNNY   88  61  40 N6        30.09F
LUKE AFB       CLOUDY    88  60  38 E8        30.06F
DEER VALLEY    CLOUDY    87  57  35 NE9       30.08F
SCOTTSDALE     PTSUNNY   88  55  32 VRB3      30.09F
MESA-FALCON    SUNNY    N/A N/A N/A N12       30.05F
MESA-GATEWAY   MOSUNNY   86  55  35 CALM      30.09F
CHANDLER       MOSUNNY   86  61  42 CALM      30.08F
$$

AZZ027-028-292100-
SOUTHWEST MARICOPA COUNTY AND PINAL COUNTY

CITY           SKY/WX    TMP DP  RH WIND       PRES   REMARKS
CASA GRANDE    SUNNY     88  59  37 NE3       30.10F
GILA BEND      MOSUNNY   93  55  28 E12       30.02F
$$

AZZ503-504-507>509-292100-
SOUTHEAST ARIZONA

CITY           SKY/WX    TMP DP  RH WIND       PRES   REMARKS
TUCSON         MOSUNNY   86  60  41 CALM      30.14F
DAVIS-MONTHAN  SUNNY     86  61  43 VRB1      30.13F
RYAN FIELD     SUNNY     84  61  45 CALM      30.14
NOGALES        SUNNY     85  57  38 MISG      30.20F
SIERRA VISTA   PTSUNNY   81  56  42 VRB1      30.26F
DOUGLAS        MOSUNNY   86  57  37 S12G20    30.21F
SAFFORD        MOSUNNY   86  59  39 VRB3      30.15F
$$

AZZ020-021-025-026-031-292100-
SOUTHWEST ARIZONA

CITY           SKY/WX    TMP DP  RH WIND       PRES   REMARKS
YUMA           PTSUNNY   92  54  27 VRB3      30.00F
$$

CAZ031-033-041-043-047-048-061-292100-
SOUTHERN CALIFORNIA

CITY           SKY/WX    TMP DP  RH WIND       PRES   REMARKS
DOWNTOWN L.A.  SUNNY     86  64  47 VRB5      30.00F
L.A. AIRPORT   MOSUNNY   78  61  55 W16       30.03S
SAN DIEGO      MOSUNNY   85  58  39 NW9       30.03F
BURBANK        SUNNY     92  53  26 S9        30.02F
ONTARIO        MOSUNNY   93  43  17 SW7       30.03F
RIVERSIDE      MOSUNNY   95  43  16 MISG      30.01F
PALM SPRINGS   SUNNY     93  49  22 E6        30.02F
EL CENTRO NAS  PTSUNNY   95  52  23 E10       29.99F
IMPERIAL       MOSUNNY   93  60  33 E7        29.98F
BLYTHE         PTSUNNY   91  52  26 SE7       30.02F
NEEDLES          N/A     94  54  25 SW3       30.03F
$$

NVZ020-UTZ003-292100-
SOUTHERN NEVADA-UTAH

CITY           SKY/WX    TMP DP  RH WIND       PRES   REMARKS
LAS VEGAS      MOSUNNY   86  47  25 VRB6      30.11F
SALT LAKE CITY PTSUNNY   77  46  33 S14G22    30.19F
$$

NMZ009-TXZ055-292100-
NEW MEXICO-WEST TEXAS

CITY           SKY/WX    TMP DP  RH WIND       PRES   REMARKS
ALBUQUERQUE    CLOUDY    78  44  29 W6        30.36F
EL PASO        MOSUNNY   83  46  27 SE9       30.27F
$$


........................KEY........................
SKY/WX - SKY CONDITION/WEATHER
TMP    - TEMPERATURE IN FAHRENHEIT
DP     - DEW POINT IN FAHRENHEIT
RH     - RELATIVE HUMIDITY IN PERCENT
WIND   - DIRECTION AND SPEED IN MILES PER HOUR (MPH)
VRB    - VARIABLE WIND DIRECTION
PRES   - MEAN SEA LEVEL PRESSURE IN INCHES OF MERCURY
         F - FALLING PRESSURE   R - RISING PRESSURE
         S - STEADY PRESSURE
VSB    - VISIBILITY IN MILES
HX     - HEAT INDEX IN FAHRENHEIT
WCI    - WIND CHILL INDEX IN FAHRENHEIT
TC     - TEMPERATURE IN CELSIUS WHICH IS ALSO KNOWN AS
         TEMPERATURE IN CENTIGRADE
AFB    - AIR FORCE BASE
         LUKE AFB IS LUKE AIR FORCE BASE
         DAVIS-MONTHAN IS DAVIS-MONTHAN AIR FORCE BASE
NAS    - NAVAL AIR STATION
         EL CENTRO NAS IS EL CENTRO NAVAL AIR STATION
N/A    - NOT AVAILABLE





USA.gov is the U.S. government's official web portal to all federal, state and local government web resources and services.